Location: Florida Caverns State Park
(30.8073°N, 85.2161°W)
Time: 17:56:00
(UTC-04:00)

N. Korean satellite - Pass Details

Date: 22 March 2019
Orbit: 457 x 508 km, 97.2° (Epoch: 22 April)

Event Time Altitude Azimuth Distance (km) Brightness Sun altitude
Rises 07:00:11 0° 30° (NNE) 2,529 10.8 -9.9°
Reaches altitude 10° 07:02:40 10° 48° (NE) 1,657 10.2 -9.4°
Maximum altitude 07:05:18 19° 96° (E) 1,193 9.8 -8.8°
Drops below altitude 10° 07:07:57 10° 144° (SE) 1,670 9.7 -8.2°
Sets 07:10:27 0° 162° (SSE) 2,557 10.4 -7.7°
